Flag for U.S.A. Weather past 2 weeks in Jersey City, New Jersey, U.S.A.

Now
60 °F

Overcast.


Feels Like: 60 °F
Forecast: 61 / 73 °F
Wind: No wind

Location: Newark International Airport

Current Time: Sep 16, 2014 at 4:10:49 AM

Latest Report: Sep 16, 2014 at 2:51 AM


Visibility: 10 mi

Pressure: 30.05 "Hg

Humidity: 78%

Dew point: 53 °F

Location of Jersey CityLocation

Historic Weather in Jersey City — Graph

°F

Jersey City temperature yesterday

Maximum temperature yesterday: 73 °F (at 4:51 PM)
Minimum temperature yesterday: 53 °F (at 4:51 AM)
Average temperature yesterday: 63 °F

Past Weeks' High & Low Weather Summary

 TemperatureHumidityPressure
High95 °F (Sep 2, 1:51 PM)97% (Sep 13, 7:51 PM)30.31 "Hg (Sep 13, 7:51 PM)
Low53 °F (Sep 14, 6:51 AM)32% (Sep 3, 2:51 PM)29.79 "Hg (Sep 2, 6:51 PM)
Average73 °F66%30.07 "Hg
* Reported Sep 1 2:51 AM — Sep 16 2:51 AM, Jersey City, Weather by CustomWeather, © 2014

Note: Actual official high and low records may vary slightly from our data, if they occured in-between our weather recording intervals... More about our weather records

Advertising

Jersey City weather history for previous 24 hours

 ConditionsComfort  
Time TempWeatherWind HumidityBarometerVisibility
2:51 AM
Sep 16
60 °FOvercast.No wind78%30.05 "Hg10 mi
1:51 AM61 °FMostly cloudy.6 mph78%30.06 "Hg10 mi
12:51 AM62 °FMostly cloudy.5 mph73%30.06 "Hg10 mi
11:51 PM
Sep 15
61 °FPartly cloudy.No wind70%30.08 "Hg10 mi
10:51 PM62 °FPartly cloudy.8 mph70%30.09 "Hg10 mi
9:51 PM63 °FPassing clouds.8 mph65%30.09 "Hg10 mi
8:51 PM64 °FPassing clouds.8 mph61%30.10 "Hg10 mi
7:51 PM65 °FBroken clouds.8 mph56%30.11 "Hg10 mi
6:51 PM67 °FPartly sunny.8 mph53%30.11 "Hg10 mi
5:51 PM70 °FPartly sunny.10 mph44%30.11 "Hg10 mi
4:51 PM73 °FPartly sunny.7 mph34%30.11 "Hg10 mi
3:51 PM71 °FScattered clouds.3 mph36%30.12 "Hg10 mi
2:51 PM72 °FScattered clouds.5 mph35%30.14 "Hg10 mi
1:51 PM70 °FScattered clouds.No wind37%30.16 "Hg10 mi
12:51 PM69 °FScattered clouds.5 mph36%30.19 "Hg10 mi
11:51 AM67 °FScattered clouds.5 mph39%30.22 "Hg10 mi
10:51 AM66 °FScattered clouds.7 mph43%30.23 "Hg10 mi
9:51 AM63 °FScattered clouds.6 mph54%30.24 "Hg10 mi
8:51 AM60 °FScattered clouds.7 mph62%30.24 "Hg10 mi
7:51 AM56 °FScattered clouds.10 mph72%30.24 "Hg10 mi
6:51 AM53 °FPassing clouds.9 mph74%30.24 "Hg10 mi
5:51 AM53 °FPassing clouds.10 mph74%30.23 "Hg10 mi
4:51 AM53 °FClear.9 mph77%30.21 "Hg10 mi
Weather by CustomWeather, © 2014

See weather overviewHow to use our weather pages